Meeker, CO

1:24 AM MDT on July 21, 2017 (GMT -0600)
Meeker

Weather History for KEEO - May, 2013

Change the Weather History Date:

Monday, May 27, 2013

  Actual Average Record
Temperature  
Mean Temperature 56 °F 55 °F  
Max Temperature 75 °F 72 °F 84 °F (2003)
Min Temperature 36 °F 39 °F 28 °F (2012)
Degree Days  
Heating Degree Days 9 10  
Month to date heating degree days 339 383  
Since 1 July heating degree days 8075 7796  
Cooling Degree Days 0 0  
Month to date cooling degree days 0 0  
Year to date cooling degree days 0 0  
Growing Degree Days 7 (Base 50)    
Moisture  
Dew Point 25 °F    
Average Humidity 37    
Maximum Humidity 59    
Minimum Humidity 14    
Precipitation  
Precipitation 0.00 in 0.03 in 0.29 in (2015)
Month to date precipitation 1.39 1.30  
Year to date precipitation 5.81 6.00  
Sea Level Pressure  
Sea Level Pressure 29.75 in    
Wind  
Wind Speed 5 mph (WNW)    
Max Wind Speed 31 mph    
Max Gust Speed 41 mph    
Visibility 10 miles    
Events      
T = Trace of Precipitation, MM = Missing Value Source: NWS Daily Summary

Daily Weather History Graph

Daily Weather History Graph

Search for Another Location

Airport or City:

Trip Planner

Search our weather history database for the weather conditions in past years. The results will help you decide how hot, cold, wet, or windy it might be!

Date:

Astronomy

May. 27, 2013 Rise Set
Actual Time 5:46 AM MDT 8:30 PM MDT
Civil Twilight 5:15 AM MDT 9:02 PM MDT
Nautical Twilight 4:35 AM MDT 9:42 PM MDT
Astronomical Twilight 3:50 AM MDT 10:28 PM MDT
Moon 11:12 PM MDT (5/27) 8:27 AM MDT (5/27)
Length of Visible Light 15h 47m
Length of Day
14h 44m
Waning Gibbous, 90% of the Moon is Illuminated
May 27
Waning Gibbous
May 31
Last Quarter
Jun 8
New
Jun 16
First Quarter
Jun 23
Full

Hourly Weather History & Observations

Time (MDT) Temp. Windchill Dew Point Humidity Pressure Visibility Wind Dir Wind Speed Gust Speed Precip Events Conditions
12:53 AM 46.0 °F 43.9 °F 26.1 °F 46% 29.77 in 10.0 mi NE 4.6 mph - N/A   Clear
1:53 AM 43.0 °F 41.3 °F 25.0 °F 49% 29.77 in 10.0 mi NNE 3.5 mph - N/A   Clear
2:53 AM 39.0 °F 35.7 °F 26.1 °F 60% 29.77 in 10.0 mi ENE 4.6 mph - N/A   Clear
3:53 AM 39.0 °F 34.8 °F 25.0 °F 57% 29.78 in 10.0 mi ENE 5.8 mph - N/A   Clear
4:53 AM 41.0 °F - 24.1 °F 51% 29.78 in 10.0 mi Calm Calm - N/A   Clear
5:53 AM 41.0 °F 39.0 °F 23.0 °F 49% 29.80 in 10.0 mi Variable 3.5 mph - N/A   Clear
6:53 AM 41.0 °F - 27.0 °F 57% 29.83 in 10.0 mi Calm Calm - N/A   Clear
7:53 AM 50.0 °F - 26.1 °F 39% 29.81 in 10.0 mi Calm Calm - N/A   Clear
8:53 AM 54.0 °F - 28.9 °F 38% 29.84 in 10.0 mi Calm Calm - N/A   Clear
9:53 AM 62.1 °F - 25.0 °F 24% 29.81 in 10.0 mi Calm Calm - N/A   Clear
10:53 AM 66.9 °F - 19.0 °F 16% 29.79 in 10.0 mi Variable 4.6 mph - N/A   Clear
11:53 AM 69.1 °F - 19.9 °F 15% 29.78 in 10.0 mi Variable 6.9 mph - N/A   Clear
12:53 PM 72.0 °F - 21.0 °F 15% 29.75 in 10.0 mi West 8.1 mph 18.4 mph N/A   Clear
1:53 PM 73.0 °F - 21.9 °F 15% 29.74 in 10.0 mi WSW 16.1 mph 23.0 mph N/A   Partly Cloudy
2:53 PM 75.0 °F - 23.0 °F 14% 29.73 in 10.0 mi West 10.4 mph 18.4 mph N/A   Scattered Clouds
3:53 PM 72.0 °F - 21.9 °F 15% 29.72 in 10.0 mi WNW 6.9 mph - N/A   Mostly Cloudy
4:53 PM 72.0 °F - 21.9 °F 15% 29.70 in 10.0 mi WSW 23.0 mph 28.8 mph N/A   Partly Cloudy
5:53 PM 73.9 °F - 21.0 °F 14% 29.67 in 10.0 mi WSW 9.2 mph 16.1 mph N/A   Scattered Clouds
6:53 PM 73.0 °F - 21.0 °F 14% 29.67 in 10.0 mi WSW 10.4 mph - N/A   Partly Cloudy
7:53 PM 69.1 °F - 24.1 °F 18% 29.65 in 10.0 mi WNW 4.6 mph - N/A   Partly Cloudy
8:53 PM 62.1 °F - 28.9 °F 29% 29.68 in 10.0 mi Calm Calm - N/A   Scattered Clouds
9:53 PM 55.0 °F - 30.9 °F 40% 29.70 in 10.0 mi NE 3.5 mph - N/A   Mostly Cloudy
10:53 PM 48.9 °F - 30.9 °F 50% 29.71 in 10.0 mi Calm Calm - N/A   Clear
11:53 PM 46.9 °F - 30.0 °F 52% 29.72 in 10.0 mi Calm Calm - N/A   Clear